Weather Roundup
Issued by NWS Springfield, MO

Home | Current Version | Previous Version | Text Only | Print | Product List | Glossary On
Versions: 1 2 3 4 5 6 7 8 9 10 11 12 13 14 15 16 17 18 19 20 21 22 23 24 25 26 27 28 29 30 31 32 33 34 35 36 37 38 39 40 41 42 43 44 45 46 47 48 49 50
000
NZUS99 KSGF 231707
HRRSGF

HOURLY WEATHER
NATIONAL WEATHER SERVICE SPRINGFIELD MO
1200 PM CDT SAT JUL 23 2016

......SGF CWA......

CITY           SKY/WX    TMP DP  RH WIND       PRES   REMARKS
SPRINGFIELD    SUNNY     94  70  45 SW3       30.00F HX 100
JOPLIN         SUNNY     93  74  53 SW12      29.99F HX 103
WEST PLAINS    SUNNY     91  74  57 SW6       30.03F HX 100
ROLLA          SUNNY     90  77  65 SW6       29.99F HX 103
OSAGE BEACH    SUNNY     92  76  59 SW7       29.99F HX 104
BRANSON        MOSUNNY   93  75  55 W6        30.03F HX 104

......SURROUNDING SGF CWA......

CITY           SKY/WX    TMP DP  RH WIND       PRES   REMARKS
CHANUTE        SUNNY     92  73  53 S13       29.95F HX 100
PARSONS        SUNNY     93  72  50 S10       29.97F HX 101
COFFEYVILLE    SUNNY     96  71  44 S10       29.96F HX 103
EMPORIA        PTSUNNY   93  70  46 S9        29.94F HX  99
GROVE OK       SUNNY     93  73  52 SW7       30.00F HX 102
ROGERS AR      SUNNY     93  74  53 SW7       30.03F HX 103
SILOAM SPRINGS SUNNY     91  70  49 SW6       30.03F HX  97
HARRISON AR    SUNNY     95  74  50 VRB3      30.03S HX 105
NEAR YELLVILLE SUNNY     91  75  59 S3        29.97F HX 102

......KANSAS AND MISSOURI......

CITY           SKY/WX    TMP DP  RH WIND       PRES   REMARKS
KANSAS CTY INT CLOUDY    88  75  65 S14       29.92F HX  97
DOWNTOWN KC    CLOUDY    91  70  49 S13       29.91F HX  96
COLUMBIA       SUNNY     92  76  59 W10       29.98F HX 104
SEDALIA        CLOUDY    94  76  55 SW8       29.97F HX 106
ST JOSEPH      CLOUDY    90  76  63 S10       29.88F HX 101
ST LOUIS       MOSUNNY   91  71  51 E8        29.99F HX  97
SPIRIT OF STL  SUNNY     91  74  57 E5        29.97S HX 100
KIRKSVILLE     CLOUDY    91  77  63 S12       29.96R HX 104
WICHITA        PTSUNNY   97  66  36 SW15G21   29.92F HX 100
TOPEKA         PTSUNNY   91  70  49 S14       29.90F HX  96
OLATHE         CLOUDY    86  74  67 S10       29.95F HX  94

......TENNESSEE......

CITY           SKY/WX    TMP DP  RH WIND       PRES   REMARKS
MEMPHIS        CLOUDY    83  72  69 S8        30.00S
NASHVILLE      PTSUNNY   92  74  55 E8        30.00F HX 101

......ARKANSAS.......

CITY           SKY/WX    TMP DP  RH WIND       PRES   REMARKS
FAYETTEVILLE   SUNNY     92  75  57 VRB5      30.02S HX 103
FT SMITH       SUNNY     95  73  48 W9        29.97F HX 104
LITTLE ROCK    MOSUNNY   96  79  57 CALM      29.96F HX 114

......OKLAHOMA.......

CITY           SKY/WX    TMP DP  RH WIND       PRES   REMARKS
TULSA          MOSUNNY   97  70  41 S9        29.95F HX 103
PONCA CITY     SUNNY     97  67  37 S9        29.93F HX 101
MCALESTER      SUNNY     94  72  48 SW8       29.99F HX 102
OKLAHOMA CITY  MOSUNNY   95  68  41 S15G21    29.98F HX  99

......IOWA............

CITY           SKY/WX    TMP DP  RH WIND       PRES   REMARKS
DES MOINES     PTSUNNY   88  77  69 S12       29.86S HX 100
QUAD CITIES    CLOUDY    88  78  72 SE8       29.96S HX 101

......ILLINOIS........

CITY           SKY/WX    TMP DP  RH WIND       PRES   REMARKS
QUINCY         CLOUDY    90  76  63 S5        29.98R HX 101
CHICAGO        CLOUDY    88  72  58 W7        29.98F HX  94




USA.gov is the U.S. government's official web portal to all federal, state and local government web resources and services.